STARLINK-33831, 63595

Orbit data source: Space-Track

STARLINK-33831, 63595 is a payload satellite owned by SpaceX/Seattle (US) in LEO that was launched on Mon, 14 Apr 2025 UTC via an FALCON 9 launch vehicle from the Air Force Eastern Test Range (AFETR). Payload-class satellites include a variety of spacecraft equipped with specific instruments for various scientific and technological missions. These include communications satellites like Starlink; space stations such as the ISS; scientific satellites like the Hubble; Earth observation satellites from companies like Planet Labs, Umbra, and HawkEye 360; GPS; miniature CubeSats for education and research; and military/defense satellites.

Loading next visibility...
Identifier
63595, 2025-076AC
Orbit
LEO
Last TLE update
3 hours ago
Origin
Manufacturer
SpaceX/Seattle
Mission
Operational Commercial Communications
Bus & Motor
STARLINK V2MO, Unknown motor
Mass
575 kg wet, ~530 kg dry
Launch date (UTC)
2025-04-14 (3 months ago)
Launch vehicle
FALCON 9
Launch site
Air Force Eastern Test Range (AFETR)
Object type
Payload
Rocket body
Debris
Shape & HBR
Box + 1 Pan, 29 m
Radar Cross Section
41.120 m², Large (>1 m²)

Expand to show TLE details & history

TLE from 3 hours ago
0 STARLINK-33831
1 63595U 25076AC  25189.22291941  .00016080  00000-0  59243-3 0  9994
2 63595  42.9982 262.1317 0000763 267.3315  92.7449 15.27588707 14245
Epoch: 2025-07-08T05:21Z
TLE epoch observation values (Epoch: 2025-07-08T05:21:00.237Z)
Latitude
-0.00002°
Longitude
-104.5403°
Altitude
482.823 km
Speed
7.626 km/s
True Right ascension
17h 28m 31s
True Declination
0° 00' 00"
Sunlit
Object was in full shadow at epoch
Visualization orbit readout
Latitude
-13.72035°
Longitude
-120.35155°
Altitude
485.401 km
Speed
7.624 km/s
Apparent Right ascension
13h 25m 38s
Apparent Declination
-43° 07' 10"
Sunlit
Object is in full shadow
Visualization observer readout
Local Sidereal Time
20:29:44
Azimuth
240.622° WSW
Elevation
-36.38°
Doppler factor
1
Orbital elements
Apogee altitude
485.492 km
Perigee altitude
484.445 km
Semi-major axis
6,863.106 km
Eccentricity
0.00008
Inclination
42.9982°
RAAN
262.1317°
Arg. of periapsis
267.3315°
True anomaly
Unknown
Mean anomaly
92.7449°
Eccentric anomaly
Unknown
Mean motion
3.81735 °/min
Orbital period
94.31 mins
BSTAR
0.00059243
Loading maneuver chart data...
Loading SW <> Apogee altitude chart data...
Loading historical data...
Loading historical data...
Loading historical data...
Loading historical data...
Loading historical data...
Loading historical data...
Loading historical data...

STARLINK-33831 Visibility forecast

Observer location: undefined°, undefined°

Span
Click to sort rows by Start time (UTC) header in descending order
Start Az.
Max El. time (UTC)
Max El. Az.
Max El.
End time (UTC)
End Az.
6 mins2025-07-08 08:42:01.305Z227.753° WSW2025-07-08 08:45:01.305Z174.088° S36.272°2025-07-08 08:48:01.305Z83.047° E
5 mins2025-07-08 10:22:01.305Z275.63° WNW2025-07-08 10:24:01.305Z326.043° NNW40.023°2025-07-08 10:27:01.305Z67.692° E
6 mins2025-07-08 12:01:01.305Z293.301° NW2025-07-08 12:04:01.305Z43.967° NE38.285°2025-07-08 12:07:01.305Z88.137° E
6 mins2025-07-08 13:40:01.305Z277.424° WNW2025-07-08 13:42:01.305Z236.487° WSW37.035°2025-07-08 13:46:01.305Z128.736° SE
6 mins2025-07-09 08:15:01.305Z222.529° SW2025-07-09 08:18:01.305Z130.112° SE35.458°2025-07-09 08:21:01.305Z79.349° E
|